THORAD AGENA D DEB, 4644

Orbit data source: Space-Track

THORAD AGENA D DEB, 4644 is space debris in SSO originally from a launch on Wed, 08 Apr 1970 UTC launched from the Air Force Western Test Range (AFWTR). Debris objects in space refer to the collection of defunct objects orbiting the Earth. Examples of debris include non-operational satellites, rocket bodies, and fragments generated from explosions, collisions, or faulty payload assembly.

Loading next visibility...
Identifier
4644, 1970-025AC
Orbit
SSO
Country
Flag of USUS
Related business
Manufacturer
Unknown
Mission
Spacecraft
Bus & Motor
Unknown
Mass
Unknown
Launch date (UTC)
1970-04-08 (56 years ago)
Launch vehicle
Unknown
Launch site
Air Force Western Test Range (AFWTR)
Object type
Payload
Rocket body
Debris
Shape & HBR
Unknown shape, 0.1 m
Radar Cross Section
Medium (>0.1 m² and <1 m²)

Expand to show TLE details & history
Last TLE update: 15 hours ago

TLE from 15 hours ago
0 THORAD AGENA D DEB
1  4644U 70025AC  26036.63863990  .00000315  00000-0  47706-3 0  9999
2  4644  99.5693 293.4011 0011685 264.9609 153.4110 13.60417790759293
Epoch: 2026-02-05T15:19Z
TLE epoch observation values (Epoch: 2026-02-05T15:19:38.487Z)
Latitude
57.25405°
Longitude
-87.41403°
Altitude
1,051.449 km
Speed
7.328 km/s
True Right ascension
18h 33m 08s
True Declination
57° 06' 13"
Sunlit
Object was in daylight at epoch
Visualization orbit readout
Latitude
Unknown
Longitude
Unknown
Altitude
Unknown
Speed
Unknown
Apparent Right ascension
Unknown
Apparent Declination
Unknown
Sunlit
N/A
Visualization observer readout
Local Sidereal Time
08:43:23
Azimuth
Unknown
Elevation
Unknown
Doppler factor
Unknown
Orbital elements
Apogee altitude
1,040.113 km
Perigee altitude
1,022.797 km
Semi-major axis
7,409.592 km
Eccentricity
0.00117
Inclination
99.5693°
RAAN
293.4011°
Arg. of periapsis
264.9609°
True anomaly
153.47085°
Mean anomaly
153.411°
Eccentric anomaly
153.44093°
Mean motion
3.40292 °/min
Orbital period
105.79 mins
BSTAR
0.00047706
Loading maneuver chart data...
Computing Atmospheric mass density...

Documentation

Showing up to 5 results
|